Vertical_Velocity
2 1 0 -3 -0 1 0 1 1 -2 -1 0 -2 -1 -0 -0 1 0 2 3 -0 1
-1 1 1 1 2 1 0 1 -1 1 -0 1 1 2 -0 1 -0 -0 -0 -2 -1 -0
-0 1 2 1 0 1 2 2 1 -0 -1 0 -1 2 1 1 0 -2 0 1 -1 -1
1 1 -1 0 0 -1 0 2 0 2 7 5 1 -1 1 2 2 -1 -1 1 2 0
-1 0 0 -0 0 2 1 1 1 1 1 -1 0 -0 -4 1 8 1 5 3 3 -1
-1 1 2 0 -1 1 1 -0 2 1 -0 1 0 -1 6 0 4 0 1 1 1 -1
-1 0 -0 1 1 1 2 2 1 1 1 0 -0 1 1 -0 -1 -0 0 1 1 -0
1 1 1 0 1 2 2 2 3 3 1 1 2 1 0 1 -1 0 -0 -1 -1 -2
0 -0 -1 1 1 1 2 2 3 2 4 3 0 -4 -6 -8 -5 -4 -0 1 2 -1
-1 -0 -1 0 1 0 1 3 -0 2 2 -6 0 5 4 2 8 3 0 0 6 1
3 -0 -0 2 0 0 0 0 -1 -1 -4 1 1 -2 -6 -3 5 2 -3 5 2 4
4 2 1 2 1 -0 -0 -0 1 -1 1 -7 -2 -2 -0 26 5 -5 -0 -46 26 -2
1 1 2 1 -0 -2 1 1 -0 -3 -3 -1 -0 0 6 2 -19 -3 -12 -0 3 3
-1 -1 0 1 1 -0 2 2 -1 -2 -0 0 1 -2 -2 -0 -6 -1 -3 2 -3 4
Height
5895 5897 5898 5899 5901 5903 5905 5906 5907 5908 5909 5910 5912 5913 5915 5916 5917 5918 5919 5920 5920 5921
5892 5894 5895 5896 5899 5900 5902 5903 5904 5905 5906 5907 5908 5911 5912 5914 5914 5915 5916 5917 5917 5917
5890 5891 5893 5894 5895 5897 5899 5900 5900 5900 5903 5905 5906 5907 5908 5909 5911 5911 5912 5913 5913 5913
5888 5889 5889 5891 5892 5894 5896 5897 5897 5899 5901 5901 5903 5904 5905 5906 5907 5907 5907 5907 5907 5907
5886 5887 5887 5888 5890 5892 5893 5894 5895 5896 5898 5898 5899 5900 5901 5902 5902 5902 5901 5900 5900 5900
5884 5885 5886 5887 5889 5890 5891 5891 5892 5893 5894 5896 5896 5897 5897 5897 5897 5897 5896 5896 5895 5895
5882 5883 5884 5885 5886 5887 5888 5889 5890 5890 5891 5891 5892 5892 5892 5891 5891 5891 5890 5890 5890 5890
5879 5880 5881 5882 5883 5885 5886 5887 5887 5888 5887 5887 5887 5886 5885 5885 5884 5884 5884 5884 5885 5884
5876 5876 5877 5879 5880 5881 5882 5883 5883 5883 5883 5883 5881 5879 5878 5878 5879 5878 5877 5877 5877 5876
5872 5873 5874 5875 5876 5877 5878 5878 5878 5877 5876 5874 5877 5876 5877 5877 5877 5876 5875 5872 5870 5869
5868 5868 5870 5871 5871 5871 5872 5872 5872 5871 5869 5871 5871 5870 5869 5870 5869 5868 5865 5864 5860 5860
5863 5864 5866 5866 5866 5866 5866 5866 5866 5865 5864 5865 5866 5865 5862 5858 5857 5856 5849 5844 5845 5851
5855 5857 5859 5859 5859 5859 5860 5860 5860 5859 5860 5860 5858 5858 5856 5853 5851 5844 5834 5834 5838 5841
5848 5850 5852 5852 5853 5853 5854 5854 5854 5854 5854 5854 5852 5851 5848 5846 5843 5838 5832 5830 5830 5833